Location: Caracas
(10.5033°N, 66.8422°W)
Time: 22:05:51
(UTC-04:00)

Vanguard 3 - All Passes

Search period start: 23 November 2017 00:00
Search period end: 03 December 2017 00:00
Orbit: 509 x 3263 km, 33.3° (Epoch: 22 November)

Date Brightness Start Highest point End Pass type
(mag) Time Alt. Az. Time Alt. Az. Time Alt. Az.
23 Nov - 01:19:28 10° NW 01:38:30 84° NE 01:57:10 10° ESE visible
23 Nov - 03:37:08 10° WNW 03:55:24 44° SW 04:09:55 10° SSE visible
23 Nov - 06:08:26 10° SW 06:11:07 11° SW 06:13:39 10° SSW visible
23 Nov - 15:12:06 10° SW 15:15:57 46° SE 15:21:30 10° ENE daylight
23 Nov - 17:23:26 10° W 17:28:23 32° NNW 17:36:19 10° NE daylight
23 Nov - 19:37:30 10° NW 19:44:18 22° N 19:54:08 10° NE visible
23 Nov - 21:51:02 10° NW 22:02:33 32° NNE 22:18:36 10° ENE visible
24 Nov - 00:04:12 10° NW 00:21:05 63° NNE 00:40:38 10° ESE visible
24 Nov - 02:19:28 10° WNW 02:38:47 66° SW 02:56:04 10° SE visible
24 Nov - 04:41:28 10° W 04:55:02 23° SW 05:06:01 10° S visible
24 Nov - 14:00:52 10° S 14:02:56 14° SE 14:05:11 10° ESE daylight
24 Nov - 16:09:50 10° WSW 16:14:05 51° NNW 16:20:51 10° NE daylight
24 Nov - 18:23:11 10° NW 18:28:24 21° N 18:35:59 10° NE visible
24 Nov - 20:37:00 10° NW 20:45:32 24° NNE 20:57:47 10° ENE visible
24 Nov - 22:49:40 10° NW 23:03:44 46° NNE 23:22:26 10° E visible
25 Nov - 01:03:19 10° NW 01:21:40 89° SW 01:40:58 10° SE visible
25 Nov - 03:21:07 10° WNW 03:38:42 39° SW 03:53:37 10° SSE visible
25 Nov - 14:56:51 10° SW 15:00:37 65° SE 15:05:50 10° ENE daylight
25 Nov - 17:08:59 10° WNW 17:13:18 24° NNW 17:19:40 10° NE daylight
25 Nov - 19:23:05 10° NW 19:29:06 19° N 19:37:33 10° NE visible
25 Nov - 21:35:41 10° NW 21:46:42 33° NNE 22:02:32 10° E visible
25 Nov - 23:48:15 10° NW 00:04:25 69° NNE 00:24:25 10° ESE visible
26 Nov - 02:03:22 10° WNW 02:21:55 59° SW 02:39:44 10° SE visible
26 Nov - 04:26:11 10° W 04:38:46 21° SW 04:49:28 10° S visible
26 Nov - 13:44:48 10° S 13:47:32 20° SE 13:50:33 10° E daylight
26 Nov - 15:55:04 10° W 15:58:57 36° NNW 16:04:38 10° NE daylight
26 Nov - 18:09:03 10° NW 18:13:21 17° N 18:19:10 10° NE visible
26 Nov - 20:22:05 10° NNW 20:30:05 24° NNE 20:41:38 10° ENE visible
26 Nov - 22:33:59 10° NW 22:47:25 50° NNE 23:06:14 10° E visible
27 Nov - 00:47:17 10° WNW 01:04:49 81° SW 01:24:34 10° SE visible
27 Nov - 03:05:19 10° W 03:22:04 35° SW 03:37:08 10° SSE visible
27 Nov - 14:41:41 10° WSW 14:45:22 85° NW 14:50:10 10° NE daylight
27 Nov - 16:54:45 10° NW 16:58:17 18° N 17:02:59 10° NNE daylight
27 Nov - 19:08:41 10° NNW 19:13:56 17° N 19:21:04 10° NE visible
27 Nov - 21:20:18 10° NW 21:30:48 35° NNE 21:46:25 10° E visible
27 Nov - 23:32:24 10° NW 23:47:46 76° NE 00:08:00 10° ESE visible
28 Nov - 01:47:27 10° WNW 02:05:07 52° SW 02:23:12 10° SSE visible
28 Nov - 04:11:16 10° WSW 04:22:36 18° SW 04:32:41 10° S visible
28 Nov - 13:28:58 10° SSW 13:32:14 28° SE 13:35:38 10° E daylight
28 Nov - 15:40:28 10° W 15:43:52 25° NNW 15:48:24 10° NE daylight
28 Nov - 17:55:09 10° NNW 17:58:20 13° N 18:02:16 10° NNE daylight
28 Nov - 20:07:05 10° NNW 20:14:36 23° NNE 20:25:32 10° ENE visible
28 Nov - 22:18:20 10° NW 22:31:04 54° NNE 22:49:53 10° ESE visible
29 Nov - 00:31:25 10° WNW 00:48:01 73° SW 01:07:58 10° SE visible
29 Nov - 02:49:47 10° W 03:05:32 31° SW 03:20:29 10° SSE visible
29 Nov - 14:26:36 10° WSW 14:30:11 55° NNW 14:34:29 10° NE daylight
29 Nov - 16:40:54 10° NW 16:43:16 13° N 16:46:06 10° NNE daylight
29 Nov - 18:54:13 10° NNW 18:58:46 15° NNE 19:04:44 10° NE visible
29 Nov - 21:04:55 10° NW 21:14:53 37° NNE 21:30:15 10° E visible
29 Nov - 23:16:39 10° NW 23:31:07 83° NE 23:51:24 10° ESE visible
30 Nov - 01:31:43 10° WNW 01:48:23 46° SW 02:06:28 10° SSE visible
30 Nov - 03:56:50 10° WSW 04:06:35 15° SW 04:15:35 10° S visible
30 Nov - 13:13:16 10° SW 13:17:00 44° SE 13:20:35 10° ENE daylight
30 Nov - 15:26:05 10° WNW 15:28:49 17° NNW 15:32:05 10° NNE daylight
30 Nov - 17:41:53 10° N 17:43:20 11° N 17:44:53 10° NNE daylight
30 Nov - 19:52:00 10° NNW 19:59:06 23° NNE 20:09:30 10° ENE visible
30 Nov - 22:02:44 10° NW 22:14:44 59° NNE 22:33:23 10° ESE visible
01 Dec - 00:15:41 10° WNW 00:31:18 66° SW 00:51:11 10° SE visible
01 Dec - 02:34:32 10° W 02:49:07 27° SW 03:03:37 10° SSE visible
01 Dec - 12:00:43 10° S 12:03:33 16° SSE 12:06:01 10° ESE daylight
01 Dec - 14:11:37 10° W 14:15:01 35° NNW 14:18:47 10° NE daylight
01 Dec - 18:39:42 10° NNW 18:43:35 14° NNE 18:48:32 10° NE visible
01 Dec - 20:49:31 10° NW 20:58:56 39° NNE 21:13:58 10° E visible
01 Dec - 23:01:00 10° NW 23:14:32 89° SW 23:34:38 10° SE visible
02 Dec - 01:16:14 10° W 01:31:48 41° SW 01:49:34 10° SSE visible
02 Dec - 03:43:02 10° SW 03:50:44 13° SSW 03:58:05 10° S visible
02 Dec - 12:57:40 10° SW 13:01:47 72° SSE 13:05:26 10° ENE daylight
02 Dec - 15:12:09 10° NW 15:13:45 12° NNW 15:15:29 10° N daylight
02 Dec - 19:36:52 10° NNW 19:43:33 24° NNE 19:53:30 10° ENE visible
02 Dec - 21:47:13 10° NW 21:58:25 65° NE 22:16:45 10° ESE visible
